Floyd, NM

1:22 AM MDT on October 01, 2016 (GMT -0600)
Melrose Gunnery Range

Weather History for K4MR - August, 2014

Change the Weather History Date:

Tuesday, August 12, 2014

  Actual Average (KCVS) Record (KCVS)
Temperature  
Mean Temperature 72 °F -  
Max Temperature 84 °F 87 °F 100 °F (2002)
Min Temperature 60 °F 62 °F 57 °F (2004)
Cooling Degree Days 6    
Growing Degree Days 22 (Base 50)    
Moisture  
Dew Point 59 °F    
Average Humidity 65    
Maximum Humidity 87    
Minimum Humidity 40    
Precipitation  
Precipitation 0.00 in - - ()
Sea Level Pressure  
Sea Level Pressure 30.12 in    
Wind  
Wind Speed 5 mph (SSE)    
Max Wind Speed 12 mph    
Max Gust Speed 17 mph    
Visibility 10 miles    
Events      
Averages and records for this station are not official NWS values.
T = Trace of Precipitation, MM = Missing Value Source: NWS Daily Summary

Daily Weather History Graph

Daily Weather History Graph

Search for Another Location

Airport or City:

Trip Planner

Search our weather history database for the weather conditions in past years. The results will help you decide how hot, cold, wet, or windy it might be!

Date:

Astronomy

Aug. 12, 2014 Rise Set
Actual Time 6:14 AM MDT 7:45 PM MDT
Civil Twilight 5:47 AM MDT 8:12 PM MDT
Nautical Twilight 5:15 AM MDT 8:44 PM MDT
Astronomical Twilight 4:41 AM MDT 9:17 PM MDT
Moon 9:04 PM MDT (8/12) 8:26 AM MDT (8/12)
Length of Visible Light 14h 25m
Length of Day
13h 31m
Waning Gibbous, 94% of the Moon is Illuminated
Aug 12
Waning Gibbous
Aug 17
Last Quarter
Aug 25
New
Sep 2
First Quarter
Sep 8
Full

Hourly Weather History & Observations

Time (MDT) Temp. Heat Index Dew Point Humidity Pressure Visibility Wind Dir Wind Speed Gust Speed Precip Events Conditions
12:56 AM 65.5 °F - 57.6 °F 76% 30.18 in 10.0 mi SSE 4.6 mph - N/A   Clear
1:56 AM 64.0 °F - 57.9 °F 80% 30.17 in 10.0 mi SSE 2.3 mph - N/A   Clear
2:56 AM 61.5 °F - 57.4 °F 86% 30.17 in 10.0 mi NNE 3.5 mph - N/A   Clear
3:56 AM 61.2 °F - 56.5 °F 85% 30.17 in 10.0 mi SE 2.3 mph - N/A   Scattered Clouds
4:56 AM 60.6 °F - 56.5 °F 86% 30.17 in 10.0 mi South 2.3 mph - N/A   Clear
5:56 AM 61.2 °F - 57.4 °F 87% 30.17 in 10.0 mi South 6.9 mph - N/A   Clear
6:56 AM 62.4 °F - 58.3 °F 86% 30.18 in 8.0 mi South 2.3 mph - N/A   Clear
8:56 AM 70.9 °F - 61.5 °F 72% 30.19 in 10.0 mi ESE 4.6 mph - N/A   Clear
9:56 AM 74.7 °F - 62.2 °F 65% 30.18 in 10.0 mi ESE 8.1 mph - N/A   Clear
11:56 AM 79.3 °F - 60.3 °F 52% 30.16 in 10.0 mi South 11.5 mph 15.0 mph N/A   Mostly Cloudy
12:56 PM 80.6 °F 81.0 °F 58.6 °F 47% 30.13 in 10.0 mi South 8.1 mph - N/A   Mostly Cloudy
1:56 PM 82.0 °F 81.6 °F 56.5 °F 41% 30.12 in 10.0 mi SE 9.2 mph 17.3 mph N/A   Clear
2:56 PM 82.9 °F 82.6 °F 57.6 °F 42% 30.09 in 10.0 mi Variable 4.6 mph - N/A   Clear
4:56 PM 83.5 °F 82.8 °F 56.7 °F 40% 30.04 in 10.0 mi SSE 8.1 mph - N/A   Clear
5:56 PM 83.5 °F 82.8 °F 56.8 °F 40% 30.01 in 10.0 mi Variable 4.6 mph - N/A   Clear
6:56 PM 81.7 °F 81.8 °F 58.3 °F 45% 30.02 in 10.0 mi SE 10.4 mph - N/A   Clear
7:56 PM 74.8 °F - 59.7 °F 59% 30.06 in 10.0 mi SSE 6.9 mph - N/A   Clear
8:56 PM 71.2 °F - 59.4 °F 66% 30.07 in 10.0 mi SSE 9.2 mph - N/A   Clear
9:56 PM 71.2 °F - 60.1 °F 68% 30.09 in 10.0 mi SSE 10.4 mph - N/A   Clear
10:56 PM 70.2 °F - 60.4 °F 71% 30.09 in 10.0 mi SSE 9.2 mph - N/A   Clear
11:56 PM 68.4 °F - 60.1 °F 75% 30.09 in 10.0 mi SSE 8.1 mph - N/A   Clear